User: anonymous   Login
Location: Oshawa
(43.9000°N, 78.8670°W)
Time: 19:24:08
(UTC-04:00)
Language:

Cosmos 1707 Rocket - Orbit

View from above orbital plane
View from above orbital plane
View from above satellite
View from above satellite

Ground track
Ground track

The orbit data is extracted from the following two-line orbital elements,

1 16327U 85113B   17229.86997679  .00000100  00000-0  91583-5 0  9991
2 16327  82.5336  34.7343 0020012 141.5890 339.6021 14.83365179711027
Epoch (UTC): 17 August 2017 20:52:45
Eccentricity: 0.0020012
inclination: 82.5336°
perigee height: 605 km
apogee height: 633 km
right ascension of ascending node: 34.7343°
argument of perigee: 141.5890°
revolutions per day: 14.83365179
mean anomaly at epoch: 339.6021°
orbit number at epoch: 71102

The dashed part of the orbit path shows where the satellite is in the earth's shadow,  

DLR